Tracking 19827 objects as of 22-Aug-2019
HD Live streaming from Space Station
objects crossing your sky now

FENGYUN 1C DEB

Track FENGYUN 1C DEB now!
10-day predictions


NORAD ID: 32104
Int'l Code: 1999-025CQW
Perigee: 742.3 km
Apogee: 1,232.2 km
Inclination: 97.7 °
Period: 104.7 minutes
Semi major axis: 7358 km
RCS: 0.0138 m2 (small)
Launch date: May 10, 1999
Source: People's Republic of China (PRC)
Launch site: Taiyaun Space Center, China (TSC)

Note: This is SATELLITE DEBRIS
aabbcc
Your satellite tracking list
Your tracking list is empty




NASA's NSSDC Master Catalog

Two Line Element Set (TLE):
1 32104U 99025CQW 18209.54534640 +.00000615 +00000-0 +44749-3 0  9999
2 32104 097.6754 115.0956 0332863 162.0544 201.1817 13.75432404554236
Source of the keplerian elements: AFSPC